User: anonymous   Login
Location: Eferding
(48.3167°N, 14.0167°E)
Time: 20:27:22
(UTC+00:00)
Language:

Cosmos 2219 - Orbit

View from above orbital plane
View from above orbital plane
View from above satellite
View from above satellite

Ground track
Ground track

The orbit data is extracted from the following two-line orbital elements,

1 22219U 92076A   20020.40737265 -.00000305 +00000-0 -13630-3 0  9994
2 22219 071.0573 019.0648 0017120 014.8483 345.3138 14.13630011401752
Epoch (UTC): 20 January 2020 09:46:36
Eccentricity: 0.0017120
inclination: 71.0573°
perigee height: 834 km
apogee height: 859 km
right ascension of ascending node: 19.0648°
argument of perigee: 14.8483°
revolutions per day: 14.13630011
mean anomaly at epoch: 345.3138°
orbit number at epoch: 40175

The dashed part of the orbit path shows where the satellite is in the earth's shadow,  

DLR